OPS 4682 DEB, 18534

Orbit data source: Space-Track

OPS 4682 DEB, 18534 is space debris in LEO originally from a launch on Sat, 03 Apr 1965 UTC launched from the Air Force Western Test Range (AFWTR). Debris objects in space refer to the collection of defunct objects orbiting the Earth. Examples of debris include non-operational satellites, rocket bodies, and fragments generated from explosions, collisions, or faulty payload assembly.

Loading next visibility...
Identifier
18534, 1965-027AE
Orbit
LEO
Country
Flag of USUS
Related business
Manufacturer
Unknown
Mission
Spacecraft
Bus & Motor
Unknown
Mass
Unknown
Launch date (UTC)
1965-04-03 (61 years ago)
Launch vehicle
Unknown
Launch site
Air Force Western Test Range (AFWTR)
Object type
Payload
Rocket body
Debris
Shape & HBR
Unknown shape, 0.1 m
Radar Cross Section
Small (<0.1 m²)

Expand to show TLE details & history
Last TLE update: 10 hours ago

TLE from 10 hours ago
0 OPS 4682 DEB
1 18534U 65027AE  25346.85072278 -.00000105  00000-0 -39240-3 0  9999
2 18534  90.2667  19.3452 0027756 237.8498 300.9536 12.96106126816853
Epoch: 2025-12-12T20:25Z
TLE epoch observation values (Epoch: 2025-12-12T20:25:02.448Z)
Latitude
1.36569°
Longitude
171.3049°
Altitude
1,269.205 km
Speed
7.226 km/s
True Right ascension
13h 17m 24s
True Declination
1° 21' 29"
Sunlit
Object was in daylight at epoch
Visualization orbit readout
Latitude
Unknown
Longitude
Unknown
Altitude
Unknown
Speed
Unknown
Apparent Right ascension
Unknown
Apparent Declination
Unknown
Sunlit
N/A
Visualization observer readout
Local Sidereal Time
05:22:58
Azimuth
Unknown
Elevation
Unknown
Doppler factor
Unknown
Orbital elements
Apogee altitude
1,295.755 km
Perigee altitude
1,253.273 km
Semi-major axis
7,652.651 km
Eccentricity
0.00278
Inclination
90.2667°
RAAN
19.3452°
Arg. of periapsis
237.8498°
True anomaly
300.68035°
Mean anomaly
300.9536°
Eccentric anomaly
300.81702°
Mean motion
3.24209 °/min
Orbital period
111.04 mins
BSTAR
-0.0003924
Loading maneuver chart data...
Computing Atmospheric mass density...
Loading historical data...
Loading historical data...
Loading historical data...
Loading historical data...
Loading historical data...
Loading historical data...
Loading historical data...

Documentation

Showing up to 5 results
|